Tracking 28335 objects as of 4-Dec-2023
HD Live streaming from Space Station
objects crossing your sky now

STARLINK-3392

Track STARLINK-3392 now!
10-day predictions
STARLINK-3392 is classified as:


NORAD ID: 51123
Int'l Code: 2022-005V
Perigee: 546.0 km
Apogee: 548.0 km
Inclination: 53.2 °
Period: 95.4 minutes
Semi major axis: 6917 km
RCS: Unknown
Launch date: January 19, 2022
Source: United States (US)
Launch site: AIR FORCE EASTERN TEST RANGE (AFETR)
Your satellite tracking list
Your tracking list is empty




NASA's NSSDC Master Catalog

Two Line Element Set (TLE):
1 51123U 22005V   23337.97512344 -.00001256  00000-0 -60868-4 0  9992
2 51123  53.2165  40.3872 0001429  68.3215 291.7929 15.08808371105153
Source of the keplerian elements: AFSPC